[[{"header":{"parameterUnit":"m.s-1","parameterCategory":1,"la1":30.2991,"la2":30.254,"lo1":-89.0895,"lo2":-89.0444,"dy":0.0017,"dx":0.0017,"nx":28,"ny":28,"refTime":"2024-07-13T21:00:00:Z","depth":0,"parameterNumber":2,"parameterNumberName":"U-component_of_WINDS"},"data":[0,0,0,0,0,0,0,0,0,0,0,0,0,0,0,0,0,0,0,0,0,0,0,0,0,0,0,0,0,0,0,0,0,0,0,0,0,0,0,0,0,0,0,0,0,0,0,0,0,0,0,0,0,0,0,0,0,0,3.1554,3.1554,0,3.1577,3.1577,3.1578,3.1464,3.146,3.1457,3.1454,3.1477,3.1481,3.1485,0,0,0,0,0,0,0,0,0,0,0,0,0,3.141,3.1414,3.1554,3.1554,3.1554,3.1577,3.1577,3.1578,3.1464,3.146,3.1456,3.1452,3.1476,3.148,3.1485,0,0,0,0,0,0,0,0,0,0,0,0,0,3.1457,3.1415,3.1553,3.15,3.1496,3.1577,3.1577,3.1578,3.1465,3.146,3.1455,3.145,3.1475,3.148,3.1486,3.1619,0,0,3.1502,3.1505,0,0,0,0,0,0,0,0,3.1455,3.1463,3.1508,3.1504,3.1499,3.1512,3.1535,3.1591,3.1466,3.1477,3.1454,3.1448,3.1493,3.1497,3.1512,3.162,3.1621,3.1503,3.1506,3.1509,3.151,0,0,0,0,0,0,0,3.1452,3.1461,3.1563,3.1509,3.1503,3.1475,3.1476,3.1545,3.1512,3.1475,3.1467,3.1471,3.149,3.1507,3.1512,3.1621,3.1503,3.1508,3.1511,3.1513,3.1839,3.1844,0,0,0,0,0,0,3.1455,3.1459,3.1562,3.1563,3.1464,3.1482,3.1483,3.1513,3.1511,3.1506,3.1476,3.1466,3.15,3.1505,3.1512,3.1666,3.1509,3.1514,3.1517,3.1834,3.184,3.1846,0,0,0,0,0,0,3.1453,3.1466,3.1561,3.1509,3.1519,3.149,3.1524,3.1516,3.1533,3.1511,3.1505,3.1499,3.1496,3.1504,3.1593,3.1666,3.1516,3.1521,3.1828,3.1836,3.1843,3.1978,0,0,0,0,0,0,3.1449,3.1466,3.1516,3.1511,3.1522,3.1642,3.1529,3.152,3.1543,3.1531,3.1532,3.1527,3.1493,3.1585,3.1599,3.1671,3.1526,3.1821,3.1831,3.1841,3.1966,3.1989,3.2009,0,0,0,0,0,3.1445,3.1552,3.1519,3.1532,3.1584,3.1646,3.1653,3.1611,3.1549,3.1599,3.1586,3.1527,3.1657,3.1595,3.1609,3.1684,3.1816,3.1828,3.184,3.1957,3.1985,3.2008,0,0,0,0,0,0,3.1566,3.1551,3.1513,3.1623,3.1637,3.1627,3.1688,3.1642,3.1673,3.166,3.1607,3.1608,3.1706,3.1704,3.1636,3.1813,3.1726,3.1741,3.181,3.1836,3.1857,3.1853,3.153,0,0,0,0,0,3.1605,3.1657,3.1641,3.174,3.1749,3.1718,3.1743,3.171,3.1722,3.1727,3.172,3.1734,3.1777,3.1807,3.1846,3.1967,3.1965,3.2026,3.2047,3.2064,3.2077,3.214,3.2166,3.1886,3.1885,3.1885,0,0,3.1687,3.1686,3.1721,3.1764,3.1771,3.1825,3.1723,3.1785,3.1825,3.1737,3.1819,3.1815,3.1827,3.1933,3.1978,3.1934,3.2155,3.2079,3.2093,3.2097,3.2155,3.2181,3.2205,3.1894,3.1892,3.1891,0,0,3.1863,3.1869,3.195,3.196,3.1972,3.1951,3.1971,3.1969,3.1962,3.2045,3.198,3.2027,3.2103,3.2114,3.213,3.2313,3.226,3.2328,3.2436,3.2498,3.252,3.254,3.2603,3.2627,3.2341,3.2342,3.2342,0,3.1963,3.2042,3.1998,3.2064,3.2085,3.2009,3.2091,3.2103,3.2127,3.2143,3.2093,3.2188,3.2191,3.2297,3.2342,3.2358,3.2378,3.2325,3.2521,3.254,3.2557,3.2617,3.2641,3.235,3.2349,3.2348,3.2347,0,3.2164,3.222,3.2285,3.231,3.2339,3.2413,3.2379,3.2414,3.2379,3.2364,3.2449,3.2451,3.2488,3.2512,3.2479,3.2614,3.2586,3.253,3.244,3.2593,3.2648,3.267,3.2361,3.2358,3.2356,3.2354,0,0,3.2413,3.2415,3.2439,3.245,3.2459,3.2501,3.2573,3.261,3.2639,3.266,3.2717,3.2785,3.2733,3.2751,3.2719,3.2774,3.2917,3.2711,3.2711,3.2747,3.3065,3.3104,3.3131,3.2884,3.2888,3.2892,3.3063,0,3.2583,3.2704,3.2667,3.2789,3.284,3.277,3.2832,3.2845,3.2833,3.2875,3.2862,3.291,3.284,3.285,3.2901,3.2889,3.298,3.2877,3.2935,3.2938,3.2931,3.3161,3.3202,3.3363,3.3084,3.3088,3.3091,0,3.2797,3.2826,3.2953,3.2954,3.2974,3.303,3.3061,3.3103,3.3116,3.3104,3.3125,3.3082,3.3152,3.3066,3.3161,3.3091,3.3114,3.3112,3.3117,3.3118,3.3021,3.3165,3.3414,3.3437,3.3125,3.3122,3.3119,0,3.2963,3.3035,3.3119,3.3131,3.3135,3.3176,3.3179,3.3187,3.3212,3.3241,3.3256,3.3293,3.3312,3.3341,3.3309,3.3249,3.3408,3.3319,3.3399,3.34,3.3432,3.343,3.3685,3.3453,3.3452,3.3452,3.3451,0,3.3155,3.3235,3.3194,3.3246,3.3333,3.3291,3.3379,3.3375,3.3383,3.3433,3.3376,3.3424,3.3381,3.3425,3.3401,3.3482,3.3492,3.3484,3.3475,3.3487,3.3488,3.3498,3.3485,3.3458,3.3457,3.3456,3.3455,0,3.3353,3.3329,3.3417,3.3414,3.3415,3.348,3.3477,3.3525,3.3511,3.3574,3.3587,3.3564,3.3614,3.3586,3.3636,3.362,3.3725,3.3704,3.3721,3.3714,3.3794,3.3786,3.4062,3.4095,3.3845,3.3847,3.3849,0,3.3475,3.3535,3.3539,3.3569,3.3576,3.3625,3.365,3.3612,3.3641,3.3662,3.3707,3.3752,3.3785,3.3867,3.3855,3.3893,3.387,3.3965,3.3875,3.3885,3.3868,3.3864,3.3869,3.3981,3.3984,3.3987,3.3989,0,3.3694,3.368,3.3718,3.3754,3.3787,3.3813,3.3834,3.3862,3.3824,3.386,3.391,3.3936,3.3988,3.4032,3.4066,3.4069,3.4023,3.4018,3.4037,3.4048,3.4054,3.4049,3.3766,3.401,3.4008,3.4007,3.4005,3.4005,3.3855,3.3905,3.3916,3.3962,3.3974,3.3996,3.4041,3.4033,3.4074,3.4113,3.4089,3.4148,3.416,3.42,3.421,3.4255,3.4217,3.4247,3.4253,3.4261,3.427,3.405,3.4262,3.4261,3.426,3.426,3.4259,0,3.4069,3.4073,3.4116,3.4148,3.4184,3.4139,3.4161,3.4194,3.4246,3.4262,3.4297,3.4354,3.4398,3.4391,3.443,3.4468,3.4448,3.4479,3.4474,3.4475,3.4303,3.4281,3.4495,3.4495,3.4495,3.4495,3.4495,3.4495,3.4183,3.4264,3.4252,3.4339,3.4343,3.44,3.4416,3.4436,3.4449,3.4515,3.4552,3.4547,3.4554,3.4594,3.4632,3.4629,3.4645,3.4684,3.4673,3.4511,3.4488,3.4465,3.4444,3.4689,3.4689,3.4841,3.4842,3.4843]},{"header":{"parameterUnit":"m.s-1","parameterCategory":1,"la1":30.2991,"la2":30.254,"lo1":-89.0895,"lo2":-89.0444,"dy":0.0017,"dx":0.0017,"nx":28,"ny":28,"refTime":"2024-07-13T21:00:00:Z","depth":0,"parameterNumber":3,"parameterNumberName":"V-component_of_WINDS"},"data":[0,0,0,0,0,0,0,0,0,0,0,0,0,0,0,0,0,0,0,0,0,0,0,0,0,0,0,0,0,0,0,0,0,0,0,0,0,0,0,0,0,0,0,0,0,0,0,0,0,0,0,0,0,0,0,0,0,0,2.0527,2.0527,0,2.0545,2.0545,2.0545,2.0516,2.0515,2.0514,2.0514,2.0531,2.0532,2.0534,0,0,0,0,0,0,0,0,0,0,0,0,0,2.0466,2.0467,2.0527,2.0527,2.0527,2.0545,2.0545,2.0546,2.0517,2.0515,2.0514,2.0513,2.0531,2.0532,2.0534,0,0,0,0,0,0,0,0,0,0,0,0,0,2.0489,2.0467,2.0527,2.0515,2.0514,2.0545,2.0545,2.0546,2.0517,2.0515,2.0514,2.0513,2.053,2.0532,2.0534,2.0577,0,0,2.0541,2.0541,0,0,0,0,0,0,0,0,2.0488,2.0491,2.0517,2.0516,2.0515,2.0527,2.053,2.0556,2.0517,2.0516,2.0514,2.0512,2.0531,2.0533,2.0539,2.0578,2.0579,2.0541,2.0542,2.0543,2.0544,0,0,0,0,0,0,0,2.0486,2.049,2.0534,2.0517,2.0516,2.0508,2.051,2.0535,2.0531,2.0516,2.0514,2.0516,2.053,2.0538,2.054,2.0579,2.0541,2.0543,2.0544,2.0545,2.0651,2.0653,0,0,0,0,0,0,2.0486,2.0489,2.0534,2.0535,2.0497,2.0511,2.0513,2.0525,2.0531,2.0531,2.0518,2.0515,2.0535,2.0537,2.054,2.0589,2.0543,2.0545,2.0546,2.065,2.0652,2.0653,0,0,0,0,0,0,2.0485,2.049,2.0533,2.0511,2.0516,2.0513,2.0527,2.0526,2.0533,2.0533,2.0532,2.0526,2.0534,2.0537,2.0568,2.059,2.0546,2.0548,2.0648,2.065,2.0652,2.0689,0,0,0,0,0,0,2.0483,2.049,2.0507,2.0512,2.0517,2.0561,2.0529,2.0527,2.0537,2.0534,2.054,2.054,2.0533,2.0565,2.057,2.0592,2.0549,2.0646,2.0649,2.0652,2.0686,2.0692,2.0698,0,0,0,0,0,2.0481,2.0516,2.0508,2.0513,2.0538,2.0562,2.0565,2.0557,2.0539,2.0555,2.0555,2.0539,2.0587,2.0568,2.0574,2.0596,2.0644,2.0648,2.0652,2.0683,2.0691,2.0698,0,0,0,0,0,0,2.0514,2.0517,2.0507,2.0546,2.0554,2.0557,2.0577,2.0566,2.0579,2.0575,2.0564,2.0566,2.0598,2.06,2.058,2.0637,2.0612,2.0617,2.0634,2.0642,2.0648,2.0646,2.0551,0,0,0,0,0,2.0526,2.0545,2.0547,2.058,2.0585,2.0581,2.0591,2.0583,2.0591,2.0594,2.0596,2.0604,2.062,2.0631,2.0647,2.0686,2.0686,2.0704,2.071,2.0715,2.0719,2.0739,2.0747,2.0665,2.0665,2.0665,0,0,2.055,2.0554,2.0567,2.0587,2.0592,2.0612,2.0584,2.0606,2.062,2.0598,2.0626,2.0628,2.0636,2.0671,2.0686,2.0673,2.0742,2.072,2.0724,2.0725,2.0743,2.0751,2.0758,2.0667,2.0667,2.0667,0,0,2.0604,2.061,2.0637,2.0643,2.0652,2.0649,2.0655,2.0661,2.0661,2.0689,2.0672,2.0689,2.0718,2.0724,2.0731,2.0786,2.0772,2.0791,2.0822,2.0842,2.0848,2.0854,2.0872,2.0879,2.0795,2.0796,2.0796,0,2.0633,2.0662,2.0653,2.0676,2.0685,2.0666,2.0693,2.0699,2.0712,2.0718,2.0704,2.0739,2.0743,2.0779,2.0792,2.0799,2.0805,2.079,2.0848,2.0853,2.0859,2.0876,2.0883,2.0798,2.0797,2.0797,2.0797,0,2.0697,2.0717,2.0738,2.0751,2.0762,2.0788,2.0782,2.0794,2.0785,2.0784,2.0812,2.0816,2.0831,2.0839,2.0832,2.0873,2.0865,2.085,2.0824,2.0869,2.0885,2.0891,2.0801,2.08,2.0799,2.0799,0,0,2.0772,2.0779,2.0787,2.0792,2.0799,2.0815,2.0839,2.0853,2.0863,2.0873,2.0892,2.0917,2.0902,2.091,2.0903,2.092,2.0961,2.0902,2.0902,2.0912,2.1006,2.1016,2.1024,2.0953,2.0954,2.0955,2.1005,0,2.0824,2.0866,2.0858,2.0898,2.0916,2.0897,2.0918,2.0925,2.0923,2.0938,2.0936,2.0953,2.0934,2.0938,2.0954,2.0953,2.098,2.0949,2.0969,2.097,2.0966,2.1033,2.1045,2.1091,2.1011,2.1012,2.1013,0,2.0891,2.0903,2.0945,2.0949,2.0956,2.0975,2.0987,2.1001,2.1008,2.1006,2.1014,2.1003,2.1026,2.1001,2.1032,2.1011,2.1019,2.1019,2.1021,2.1021,2.0993,2.1034,2.1106,2.1113,2.1023,2.1022,2.1021,0,2.094,2.0967,2.0995,2.1,2.1005,2.1018,2.1021,2.1026,2.1035,2.1046,2.1051,2.1065,2.1072,2.1082,2.1075,2.1057,2.1106,2.1081,2.1104,2.1104,2.1114,2.1113,2.1187,2.1121,2.1121,2.1121,2.1121,0,2.0999,2.1025,2.1016,2.1034,2.1062,2.1052,2.108,2.108,2.1085,2.1101,2.1087,2.1102,2.1092,2.1107,2.1101,2.1126,2.113,2.1128,2.1126,2.1129,2.1129,2.1133,2.1129,2.1123,2.1122,2.1122,2.1122,0,2.1058,2.1054,2.1083,2.1085,2.1086,2.1107,2.1109,2.1124,2.1122,2.1142,2.1147,2.1142,2.1159,2.1153,2.117,2.1166,2.1198,2.1193,2.1196,2.1194,2.1217,2.1215,2.1295,2.1305,2.1234,2.1234,2.1235,0,2.1096,2.1115,2.1119,2.1129,2.1133,2.1149,2.1158,2.1149,2.1159,2.1168,2.1182,2.1197,2.1208,2.1235,2.1233,2.1246,2.124,2.1267,2.1241,2.1243,2.1239,2.1237,2.1238,2.1272,2.1273,2.1273,2.1274,0,2.1162,2.1159,2.1172,2.1185,2.1196,2.1205,2.1213,2.1222,2.1213,2.1225,2.1241,2.125,2.1268,2.1282,2.1294,2.1296,2.1283,2.1282,2.1288,2.129,2.1291,2.129,2.1209,2.128,2.1279,2.1279,2.1279,2.1278,2.1211,2.1226,2.1232,2.1247,2.1252,2.126,2.1274,2.1273,2.1286,2.13,2.1294,2.1312,2.1317,2.1331,2.1335,2.1349,2.1338,2.1347,2.1349,2.1351,2.1354,2.129,2.1351,2.1351,2.1351,2.1351,2.1351,0,2.1275,2.1277,2.1292,2.1303,2.1315,2.1302,2.131,2.1321,2.1337,2.1343,2.1355,2.1373,2.1387,2.1386,2.1398,2.141,2.1404,2.1413,2.1412,2.1412,2.1363,2.1356,2.1417,2.1417,2.1417,2.1417,2.1417,2.1417,2.131,2.1336,2.1333,2.136,2.1362,2.138,2.1386,2.1392,2.1397,2.1418,2.1429,2.1429,2.1432,2.1444,2.1456,2.1455,2.146,2.1471,2.1468,2.1422,2.1416,2.1409,2.1403,2.1473,2.1473,2.1516,2.1516,2.1517]}]]